Location: A�t Bou Chrif
(32.7193°N, 5.2385°W)
Time: 00:35:45
(UTC+00:00)

BREEZE-M DEB (TANK) - Pass Details

Date: 08 August 2020
Orbit: 313 x 15739 km, 49.5° (Epoch: 18 September)

Event Time Altitude Azimuth Distance (km) Brightness Sun altitude
Rises 20:02:59 0° 310° (NW) 6,224 9.5 -10.6°
Reaches altitude 10° 20:08:47 10° 310° (NW) 3,625 7.9 -11.7°
Maximum altitude 20:15:41 85° 222° (SW) 580 2.4 -12.9°
Enters shadow 20:17:24 23° 135° (SE) 988 3.0 -13.2°
